Weather History for Cecil Field, FL

Change the Weather History Date:

Thursday, June 20, 2013

  Actual Average (KJAX) Record (KJAX)
Temperature  
Mean Temperature 78 °F 81 °F  
Max Temperature 87 °F 90 °F 100 °F (1990)
Min Temperature 68 °F 71 °F 60 °F (1899)
Degree Days  
Heating Degree Days 0 0  
Month to date heating degree days 0  
Since 1 June heating degree days 0  
Since 1 July heating degree days 1349  
Cooling Degree Days 12 16  
Month to date cooling degree days 287  
Year to date cooling degree days 771  
Since 1 June cooling degree days 287  
Growing Degree Days 28 (Base 50)    
Moisture  
Dew Point 73 °F    
Average Humidity 93    
Maximum Humidity 100    
Minimum Humidity 62    
Precipitation  
Precipitation 0.00 in 0.23 in 2.15 in (1966)
Month to date precipitation 4.11  
Year to date precipitation 19.67  
Snow  
Snow 0.00 in 0.00 in 0.00 in (2002)
Month to date snowfall 0.0  
Since 1 June snowfall 0.0  
Since 1 July snowfall T  
Snow Depth -    
Sea Level Pressure  
Sea Level Pressure 30.06 in    
Wind  
Wind Speed 2 mph (NNE)    
Max Wind Speed 15 mph    
Max Gust Speed 25 mph    
Visibility 10 miles    
Events      
T = Trace of Precipitation, MM = Missing Value Source: NWS Daily Summary

Daily Weather History Graph

Daily Weather History Graph

Search for Another Location

Airport:

Trip Planner

Search our weather history database for the weather conditions in past years. The results will help you decide how hot, cold, wet, or windy it might be!

Date:

Astronomy

Jun. 20, 2013 Rise Set
Actual Time 6:26 AM EDT 8:32 PM EDT
Civil Twilight 5:58 AM EDT 8:59 PM EDT
Nautical Twilight 5:25 AM EDT 9:33 PM EDT
Astronomical Twilight 4:49 AM EDT 10:09 PM EDT
Moon 5:39 PM EDT (6/20) 3:42 AM EDT (6/20)
Length of Visible Light 15h 00m
Length of Day
14h 05m
Waxing Gibbous, 89% of the Moon is Illuminated
Jun 20
Waxing Gibbous
Jun 23
Full
Jun 30
Last Quarter
Jul 8
New
Jul 15
First Quarter

Hourly Weather History & Observations

Time (EDT) Temp. Heat Index Dew Point Humidity Pressure Visibility Wind Dir Wind Speed Gust Speed Precip Events Conditions
12:15 AM 75.2 °F - 73.4 °F 94% 30.06 in 10.0 mi Calm Calm - N/A   Mostly Cloudy
12:35 AM 73.4 °F - 73.4 °F 100% 30.05 in 10.0 mi Calm Calm - N/A   Scattered Clouds
12:55 AM 73.4 °F - 73.4 °F 100% 30.04 in 10.0 mi Calm Calm - N/A   Scattered Clouds
1:15 AM 73.4 °F - 73.4 °F 100% 30.02 in 10.0 mi West 4.6 mph - N/A   Clear
1:35 AM 73.4 °F - 73.4 °F 100% 30.02 in 8.0 mi ESE 4.6 mph - N/A   Clear
1:55 AM 73.4 °F - 73.4 °F 100% 30.03 in 10.0 mi Calm Calm - N/A   Clear
2:15 AM 71.6 °F - 71.6 °F 100% 30.03 in 10.0 mi Calm Calm - N/A   Clear
2:35 AM 71.6 °F - 71.6 °F 100% 30.03 in 10.0 mi ESE 3.5 mph - N/A   Scattered Clouds
2:55 AM 71.6 °F - 71.6 °F 100% 30.01 in 10.0 mi Calm Calm - N/A   Partly Cloudy
3:15 AM 71.6 °F - 71.6 °F 100% 30.01 in 10.0 mi Calm Calm - N/A   Clear
3:35 AM 71.6 °F - 71.6 °F 100% 30.01 in 10.0 mi Calm Calm - N/A   Clear
3:55 AM 71.6 °F - 71.6 °F 100% 30.01 in 9.0 mi Calm Calm - N/A   Clear
4:15 AM 69.8 °F - 69.8 °F 100% 30.01 in 9.0 mi Calm Calm - N/A   Clear
4:35 AM 69.8 °F - 69.8 °F 100% 30.01 in 10.0 mi Calm Calm - N/A   Clear
4:55 AM 69.8 °F - 69.8 °F 100% 30.01 in 10.0 mi Calm Calm - N/A   Clear
5:15 AM 69.8 °F - 69.8 °F 100% 30.02 in 10.0 mi Calm Calm - N/A   Clear
5:35 AM 69.8 °F - 69.8 °F 100% 30.02 in 10.0 mi Calm Calm - N/A   Clear
5:55 AM 69.8 °F - 69.8 °F 100% 30.03 in 5.0 mi Calm Calm - N/A   Clear
6:15 AM 68.0 °F - 68.0 °F 100% 30.04 in 6.0 mi Calm Calm - N/A   Clear
6:35 AM 69.8 °F - 69.8 °F 100% 30.05 in 6.0 mi Calm Calm - N/A   Clear
6:50 AM 69.8 °F - 69.8 °F 100% 30.05 in 10.0 mi Calm Calm - N/A   Clear
7:50 AM 75.2 °F - 73.4 °F 94% 30.06 in 10.0 mi South 3.5 mph - N/A   Clear
8:50 AM 77.0 °F - 75.2 °F 94% 30.08 in 10.0 mi West 3.5 mph - N/A   Scattered Clouds
9:50 AM 78.8 °F - 75.2 °F 89% 30.09 in 10.0 mi West 3.5 mph - N/A   Scattered Clouds
10:50 AM 84.2 °F 92.3 °F 75.2 °F 74% 30.09 in 10.0 mi WNW 3.5 mph - N/A   Scattered Clouds
11:50 AM 82.4 °F 89.5 °F 75.2 °F 79% 30.11 in 10.0 mi NNW 11.5 mph - N/A   Mostly Cloudy
12:50 PM 86.0 °F 95.1 °F 75.2 °F 70% 30.09 in 10.0 mi NNW 5.8 mph - N/A   Mostly Cloudy
1:50 PM 87.8 °F 95.6 °F 73.4 °F 62% 30.09 in 10.0 mi North 5.8 mph - N/A   Mostly Cloudy
2:50 PM 86.0 °F 93.4 °F 73.4 °F 66% 30.07 in 10.0 mi NNE 11.5 mph - N/A   Mostly Cloudy
3:50 PM 78.8 °F - 71.6 °F 78% 30.08 in 10.0 mi East 15.0 mph 25.3 mph N/A   Mostly Cloudy
4:50 PM 77.0 °F - 71.6 °F 83% 30.06 in 10.0 mi NE 5.8 mph - N/A   Partly Cloudy
5:50 PM 82.4 °F 88.2 °F 73.4 °F 74% 30.08 in 10.0 mi ESE 9.2 mph - N/A   Partly Cloudy
6:50 PM 80.6 °F 86.2 °F 75.2 °F 84% 30.08 in 10.0 mi East 8.1 mph - N/A   Partly Cloudy
7:50 PM 78.8 °F - 73.4 °F 83% 30.08 in 10.0 mi East 6.9 mph - N/A   Scattered Clouds
8:15 PM 77.0 °F - 75.2 °F 94% 30.10 in 10.0 mi Calm Calm - N/A   Clear
8:35 PM 77.0 °F - 75.2 °F 94% 30.11 in 10.0 mi Calm Calm - N/A   Clear
8:55 PM 77.0 °F - 75.2 °F 94% 30.11 in 10.0 mi Calm Calm - N/A   Partly Cloudy
9:15 PM 75.2 °F - 75.2 °F 100% 30.10 in 10.0 mi Calm Calm - N/A   Partly Cloudy
9:35 PM 75.2 °F - 73.4 °F 94% 30.10 in 10.0 mi Calm Calm - N/A   Mostly Cloudy
9:55 PM 75.2 °F - 73.4 °F 94% 30.10 in 10.0 mi Calm Calm - N/A   Mostly Cloudy
10:15 PM 75.2 °F - 73.4 °F 94% 30.10 in 10.0 mi Calm Calm - N/A   Overcast
10:35 PM 75.2 °F - 73.4 °F 94% 30.11 in 10.0 mi Calm Calm - N/A   Scattered Clouds
10:55 PM 73.4 °F - 73.4 °F 100% 30.11 in 10.0 mi Calm Calm - N/A   Mostly Cloudy
11:15 PM 73.4 °F - 73.4 °F 100% 30.12 in 10.0 mi North 4.6 mph - N/A   Overcast
11:35 PM 73.4 °F - 73.4 °F 100% 30.11 in 10.0 mi Calm Calm - N/A   Scattered Clouds
11:55 PM 73.4 °F - 73.4 °F 100% 30.12 in 10.0 mi NNE 3.5 mph - N/A   Scattered Clouds